Location: *
(50.5175°N, 8.3889°E)
Time: 05:52:32
(UTC+00:00)

Daily predictions for brighter satellites

Satellite Brightness Start Highest point End
(mag) Time Altitude Azimuth Time Altitude Azimuth Time Altitude Azimuth
CZ-2D R/B 3.9 00:00:26 10° NE 00:04:27 22° E 00:04:27 22° E
Cosmos 2333 Rocket 2.6 00:01:54 10° NNW 00:07:04 58° NNE 00:07:04 58° NNE
Cosmos 2237 Rocket 3.8 00:08:30 10° NNW 00:13:29 30° NE 00:17:06 16° E
ATLAS 5 CENTAUR R/B 4.4 00:12:22 10° NW 00:16:16 22° NNE 00:20:37 10° ENE
Cosmos 2082 Rocket 4.4 00:27:35 14° WNW 00:30:20 19° NNW 00:34:17 10° N
SL-16 R/B 2.8 00:31:33 57° ESE 00:32:22 62° ENE 00:38:31 10° N
Meteor 1-5 Rocket 4.4 00:29:57 10° N 00:35:21 64° NE 00:35:21 64° NE
Cosmos 2297 Rocket 4.4 00:36:37 14° ESE 00:37:27 14° E 00:40:17 10° ENE
Cosmos 839 Rocket 4.2 00:37:10 65° WNW 00:37:37 67° NW 00:44:41 10° NE
Meteor 1-11 Rocket 4.2 00:35:53 10° N 00:41:46 58° ENE 00:42:22 55° E
Cosmos 1072 Rocket 4.4 00:39:32 10° N 00:45:46 81° E 00:45:57 80° ESE
Meteor 2-6 Rocket 4.3 00:49:34 66° NE 00:49:34 66° NE 00:54:26 10° NNE
Meteor 2-11 Rocket 4.3 00:43:40 10° N 00:49:42 85° NW 00:49:42 85° NW
Cosmos 2219 Rocket 2.6 00:44:44 10° NNW 00:49:01 53° NW 00:49:01 53° NW
USA 234 3.9 00:44:15 10° E 00:50:33 53° N 00:56:52 10° WNW
Cosmos 2227 Rocket 4.0 01:02:32 19° ESE 01:03:45 20° E 01:07:44 10° NE
ADEOS II 3.6 01:02:29 10° NE 01:06:57 27° E 01:08:11 25° ESE
COSMOS 2428 3.3 01:05:56 10° NW 01:10:03 45° WNW 01:10:03 45° WNW
Cosmos 1464 Rocket 3.8 01:06:58 10° NNW 01:13:04 73° W 01:13:07 73° W
SJ 16-02 2.1 01:14:58 51° NNE 01:14:58 51° NNE 01:18:18 10° NNE
Cosmos 1812 4.2 01:15:58 35° N 01:15:58 35° N 01:18:19 10° N
Cosmos 1980 3.8 01:11:02 10° NNW 01:16:44 73° ENE 01:18:04 53° SE
Resurs 1-4 Rocket 2.0 01:13:38 10° NNE 01:18:57 79° ESE 01:18:58 79° ESE
NOSS 0 Rocket 3.7 01:18:17 10° NNW 01:24:28 77° WSW 01:24:55 73° SSW
ARIANE 5 R/B 4.1 01:24:26 10° NE 01:28:57 29° E 01:31:01 22° SE
SL-16 R/B 3.4 01:29:05 10° NNW 01:34:29 42° NE 01:39:51 10° ESE
H-2A R/B 3.3 01:34:44 27° ESE 01:36:15 37° ENE 01:40:05 10° N
Cosmos 405 Rocket 4.5 01:34:10 10° NNW 01:35:50 25° NNW 01:35:50 25° NNW
STARLINK-59 4.5 01:40:18 45° E 01:40:18 45° E 01:43:11 10° ENE
Cosmos 1908 Rocket 3.9 01:35:00 10° N 01:39:21 61° ENE 01:39:31 60° E
Cosmos 1733 Rocket 4.0 01:35:04 10° NNW 01:38:04 39° NW 01:38:04 39° NW
Cosmos 1536 4.1 01:35:47 10° NNW 01:38:08 33° NNW 01:38:08 33° NNW
STARLINK-56 4.4 01:41:48 46° E 01:41:48 46° E 01:44:43 10° ENE
STARLINK-1017 4.3 01:41:46 49° E 01:41:46 49° E 01:44:53 10° ENE
Lacrosse 5 rocket 2.1 01:41:23 45° N 01:41:23 45° N 01:44:38 10° NE
Timation 2 Rocket 4.1 01:39:47 56° SSW 01:41:26 90° ESE 01:48:24 10° NNE
STARLINK-73 4.3 01:43:24 47° E 01:43:24 47° E 01:46:23 10° ENE
NPP 3.5 01:38:05 10° NNE 01:43:29 77° WNW 01:44:03 69° SW
STARLINK-38 4.3 01:44:59 50° E 01:44:59 50° E 01:48:03 10° ENE
CZ-2D R/B 2.1 01:39:43 10° N 01:45:11 68° WNW 01:45:47 63° WSW
STARLINK-65 4.2 01:46:35 52° E 01:46:35 52° E 01:49:43 10° ENE
Cosmos 1634 Rocket 4.1 01:40:44 10° N 01:46:56 71° ENE 01:50:17 29° SSE
STARLINK-53 4.1 01:48:14 55° ENE 01:48:14 55° ENE 01:51:27 10° ENE
STARLINK-1014 4.1 01:49:10 55° E 01:49:10 55° E 01:52:26 10° ENE
Cosmos 858 Rocket 4.3 01:50:51 69° WSW 01:51:19 75° WNW 01:56:33 10° NNE
Cosmos 2333 Rocket 3.8 01:46:44 10° NW 01:49:02 20° WNW 01:49:02 20° WNW
ERS-2 3.2 01:53:19 39° NNW 01:53:19 39° NNW 01:55:42 10° NNW
STARLINK-1048 3.7 01:56:06 70° E 01:56:06 70° E 01:59:49 10° ENE
CZ-4B R/B 3.5 01:51:11 10° N 01:55:52 56° WNW 01:55:59 56° WNW
Cosmos 372 Rocket 4.3 01:54:53 45° SSE 01:56:07 58° ESE 02:01:15 10° NNE
USA 267 4.2 01:50:40 10° ENE 01:56:32 34° SE 01:58:52 27° SSE
Cosmos 1937 Rocket 3.4 01:56:46 62° WSW 01:57:22 69° WNW 02:02:34 10° NNE
STARLINK-24 3.7 01:58:12 70° ENE 01:58:12 70° ENE 02:01:49 10° ENE
Cosmos 2237 Rocket 2.1 01:52:21 10° NW 01:57:59 64° WSW 01:58:51 56° SSW
SL-08 R/B 3.3 01:58:01 51° SSE 01:59:18 89° ENE 02:04:18 10° NNW
STARLINK-1049 3.6 02:00:53 79° ENE 02:00:53 79° ENE 02:04:48 10° ENE
CBERS-1 3.9 01:56:38 10° NNE 02:01:48 84° WNW 02:02:45 60° SSW
STARLINK-66 4.3 02:02:45 40° NE 02:02:45 40° NE 02:05:09 10° ENE
ATLAS 5 CENTAUR R/B 3.4 01:57:02 10° NW 02:02:11 44° NE 02:08:10 10° ESE
Tsikada Rocket 4.0 02:00:24 47° SSW 02:02:25 78° W 02:08:53 10° N
Cosmos 2034 Rocket 4.3 01:57:00 10° NNW 02:03:02 45° W 02:03:50 43° WSW
STARLINK-58 4.2 02:04:48 41° NE 02:04:48 41° NE 02:07:08 10° ENE
Cosmos 1818 4.3 01:58:59 10° NW 02:04:22 54° NE 02:09:42 10° ESE
STARLINK-1051 3.5 02:05:41 87° NNE 02:05:41 87° NNE 02:09:49 10° ENE
Okean 1 3.8 02:06:03 47° SE 02:06:40 53° E 02:10:32 10° NNE
STARLINK-1010 3.6 02:07:29 77° WNW 02:07:42 81° NNW 02:11:57 10° ENE
STARLINK-1059 4.4 02:08:19 39° SE 02:08:19 39° SE 02:11:58 10° ENE
Meteor 1-27 Rocket 4.0 02:07:19 47° WSW 02:08:23 54° WNW 02:14:06 10° N
STARLINK-75 3.8 02:12:52 48° NNE 02:12:52 48° NNE 02:15:41 10° E
IRS-P3 4.1 02:07:11 10° NNE 02:12:35 89° ESE 02:14:22 44° SSW
Cosmos 1898 Rocket 4.1 02:11:46 38° W 02:12:37 41° WNW 02:17:35 10° NNE
STARLINK-1057 4.3 02:13:06 42° SE 02:13:06 42° SE 02:16:58 10° ENE
STARLINK-1028 3.5 02:15:13 72° W 02:15:35 82° NNW 02:19:45 10° ENE
SL-16 R/B 3.5 02:16:37 28° W 02:16:37 28° W 02:21:42 10° NW
STARLINK-61 3.7 02:15:54 56° NW 02:16:24 63° N 02:20:18 10° ENE
Sich 1 Rocket 4.0 02:13:04 10° N 02:17:26 59° ENE 02:20:31 18° SSE
Landsat 5 3.7 02:15:52 28° SE 02:17:40 61° ENE 02:21:30 10° N
STARLINK-1034 4.1 02:17:53 45° SSE 02:18:00 45° SSE 02:21:58 10° ENE
Cosmos 1743 2.7 02:14:28 10° NNW 02:18:11 70° WNW 02:18:11 70° WNW
Cosmos 1975 3.1 02:14:51 10° N 02:18:52 66° ENE 02:20:39 31° SSE
Cosmos 2297 Rocket 2.2 02:18:25 40° SSW 02:20:33 78° ESE 02:26:15 10° NNE
STARLINK-1021 3.6 02:20:02 64° W 02:20:35 79° NNW 02:24:45 10° ENE
USA 238 DEB 3.8 02:18:57 35° SSW 02:21:58 68° SE 02:28:51 10° NE
USA 238 3.8 02:19:02 34° SSW 02:22:05 68° SE 02:28:59 10° NE
BREEZE-M DEB (TANK) 3.1 02:22:14 57° SW 02:22:55 74° S 02:28:49 10° E
STARLINK-1068 4.0 02:22:39 47° SSE 02:22:56 48° SSE 02:26:57 10° ENE
Meteor 2-9 Rocket 4.5 02:17:44 10° N 02:23:39 73° ENE 02:29:29 10° SSE
STARLINK-1029 3.4 02:24:13 54° N 02:24:13 54° N 02:27:11 10° ENE
STARLINK-34 3.5 02:25:25 52° N 02:25:29 52° N 02:28:38 10° ENE
STARLINK-1019 3.6 02:24:48 57° W 02:25:34 77° NNW 02:29:43 10° ENE
STARLINK-62 3.5 02:26:21 52° NNW 02:26:27 52° N 02:29:35 10° ENE
STARLINK-81 3.6 02:26:09 57° W 02:26:52 75° NNW 02:30:54 10° ENE
AQUA 4.5 02:23:23 10° N 02:27:46 38° WNW 02:28:31 35° W
Helios 1B 4.4 02:26:01 33° SSE 02:27:57 85° WSW 02:32:20 10° NNW
Cosmos 1048 Rocket 3.9 02:22:43 10° NNW 02:28:03 71° WSW 02:32:52 13° SSE
STARLINK-1023 3.7 02:27:18 50° W 02:28:17 74° NNW 02:32:29 10° ENE
Cosmos 405 4.0 02:28:56 34° NW 02:28:56 34° NW 02:31:44 10° N
STARLINK-54 3.6 02:27:54 53° WNW 02:28:43 72° NNW 02:32:46 10° ENE
STARLINK-22 3.5 02:28:25 49° NNW 02:28:45 52° N 02:31:56 10° E
Cosmos 2219 3.2 02:27:51 40° SW 02:30:00 74° WNW 02:35:48 10° NNE
CZ-2C R/B 4.0 02:26:09 10° NNE 02:30:00 41° E 02:32:21 20° SSE
STARLINK-77 3.6 02:29:19 53° W 02:30:10 74° NNW 02:34:13 10° ENE
STARLINK-1012 3.7 02:29:35 50° W 02:30:34 74° NNW 02:34:43 10° ENE
STARLINK-25 3.6 02:30:54 50° W 02:31:49 73° NNW 02:35:52 10° ENE
STARLINK-1060 3.8 02:32:12 48° S 02:32:51 54° SSE 02:36:55 10° ENE
USA 234 3.3 02:26:44 10° ESE 02:33:16 82° NNE 02:39:51 10° WNW
Cosmos 2219 Rocket 4.3 02:30:36 10° WNW 02:30:42 10° WNW 02:30:42 10° WNW
STARLINK-71 3.7 02:32:41 46° W 02:33:42 70° NNW 02:37:45 10° ENE
Cosmos 2279 Rocket 3.9 02:28:08 10° N 02:34:24 85° W 02:40:40 10° S
COBE Rocket 4.1 02:30:03 10° SSE 02:34:45 68° ENE 02:39:25 10° N
STARLINK-79 3.6 02:34:05 46° W 02:35:08 71° NNW 02:39:11 10° ENE
STARLINK-78 3.7 02:35:41 44° W 02:36:49 70° NNW 02:40:50 10° ENE
Meteor 1-28 Rocket 3.0 02:36:21 54° SSW 02:37:00 69° WSW 02:40:46 10° NNW
STARLINK-1030 3.8 02:37:00 47° SSW 02:37:50 58° SSE 02:41:55 10° ENE
Meteor 1-18 Rocket 4.2 02:34:45 26° S 02:38:12 87° E 02:43:56 10° NNE
STARLINK-57 3.7 02:37:22 42° W 02:38:35 69° NNW 02:42:36 10° ENE
STARLINK-48 3.8 02:38:02 29° WNW 02:39:49 62° N 02:43:42 10° E
STARLINK-49 3.7 02:38:52 41° W 02:40:08 69° NNW 02:44:10 10° ENE
STARLINK-1026 3.7 02:39:08 40° W 02:40:31 70° NNW 02:44:40 10° ENE
Cosmos 1125 Rocket 3.7 02:37:44 26° S 02:40:47 68° ESE 02:46:05 10° NNE
GENESIS II 4.3 02:39:54 45° SSW 02:41:03 74° SE 02:45:10 10° NE
IRS-1D 4.0 02:36:58 10° N 02:41:42 42° WNW 02:43:17 33° WSW
STARLINK-27 3.7 02:40:27 40° W 02:41:47 69° N 02:45:49 10° ENE
STARLINK-1020 3.7 02:41:48 45° SSW 02:42:49 61° SSE 02:46:55 10° ENE
STARLINK-74 3.7 02:42:03 38° W 02:43:27 68° NNW 02:47:28 10° ENE
STARLINK-39 3.7 02:43:37 36° W 02:45:05 67° N 02:49:07 10° ENE
STARLINK-1013 3.8 02:43:55 35° W 02:45:31 68° N 02:49:39 10° ENE
NOSS 3-2 (A) 3.4 02:42:50 31° SW 02:45:54 85° SE 02:52:38 10° NE
STARLINK-31 3.7 02:45:15 35° W 02:46:47 67° N 02:50:49 10° ENE
ADEOS II 2.4 02:41:49 10° N 02:46:56 52° WNW 02:49:08 31° SW
Cosmos 2227 Rocket 2.1 02:44:21 31° SW 02:47:09 79° WNW 02:52:52 10° NNE
STARLINK-1052 3.7 02:46:34 42° SW 02:47:46 65° SSE 02:51:54 10° ENE
STARLINK-1007 3.8 02:46:18 33° W 02:48:04 68° N 02:52:16 10° ENE
STARLINK-69 3.8 02:46:59 33° W 02:48:38 65° N 02:52:39 10° ENE
STARLINK-41 3.5 02:48:32 33° NW 02:49:38 55° N 02:52:46 10° E
CZ-2D R/B 3.4 02:45:26 10° NNE 02:49:42 85° WNW 02:51:42 30° SSW
STARLINK-21 3.8 02:48:25 32° W 02:50:06 66° N 02:54:08 10° ENE
CENTAUR R/B 3.0 02:46:11 21° SSW 02:50:12 56° ESE 02:57:06 10° NE
STARLINK-1009 3.8 02:48:43 32° W 02:50:31 67° N 02:54:39 10° ENE
Cosmos 1782 Rocket 3.8 02:47:02 10° NNW 02:51:12 45° W 02:52:27 35° SW
STARLINK-45 3.8 02:50:10 30° W 02:51:59 64° N 02:56:00 10° ENE
SJ 16-02 3.4 02:51:57 13° WNW 02:53:11 15° NW 02:55:43 10° NNW
Cosmos 2150 Rocket 4.2 02:50:34 30° SW 02:53:13 65° WNW 02:58:41 10° NNE
STARLINK-70 3.8 02:51:42 30° W 02:53:33 64° N 02:57:34 10° ENE
Cosmos 2298 Rocket 4.2 02:51:32 31° SW 02:54:00 59° WNW 02:59:17 10° NNE
CZ-4C R/B 3.4 02:54:39 37° WNW 02:54:39 37° WNW 02:57:12 10° NNW
STARLINK-76 3.8 02:53:12 29° W 02:55:06 64° N 02:59:08 10° ENE
STARLINK-1015 3.8 02:53:27 29° W 02:55:28 66° N 02:59:36 10° ENE
STARLINK-42 3.4 02:54:29 29° WNW 02:55:55 60° N 02:59:05 10° E
Okean 1-7 3.3 02:55:06 34° SW 02:56:37 49° WNW 03:00:56 10° N
STARLINK-23 3.8 02:54:48 28° W 02:56:47 64° N 03:00:47 10° ENE
STARLINK-80 3.4 02:54:28 22° WNW 02:56:47 80° NNE 03:00:36 10° ESE
STARLINK-1027 3.7 02:55:30 35° SW 02:57:11 74° SSE 03:01:27 10° ENE
STARLINK-1033 3.6 02:56:08 36° SW 02:57:42 72° SSE 03:01:52 10° ENE
Resurs 1-4 Rocket 3.7 02:54:25 10° N 02:58:12 20° NW 03:00:04 17° W
STARLINK-32 3.8 02:56:22 27° W 02:58:24 63° N 03:02:24 10° ENE
SAR-Lupe-4 3.5 02:57:22 24° S 02:59:23 62° WSW 03:02:57 10° NNW
STARLINK-40 3.8 02:57:57 26° W 03:00:03 63° N 03:04:05 10° ENE
STARLINK-64 3.7 02:58:19 23° WNW 03:00:18 56° N 03:03:49 10° E
STARLINK-1016 3.9 02:58:16 26° W 03:00:30 64° N 03:04:37 10° ENE
IDEFIX/ARIANE 42P 2.7 02:55:27 10° NNE 03:00:40 74° ESE 03:05:39 11° S
STARLINK-44 3.9 02:59:33 25° W 03:01:44 63° N 03:05:44 10° ENE
Cosmos 1703 Rocket 4.2 03:00:16 30° WSW 03:01:47 39° WNW 03:06:01 10° N
STARLINK-37 3.9 03:01:14 24° W 03:03:31 62° N 03:07:32 10° ENE
STARLINK-1031 3.6 03:02:54 31° WSW 03:04:53 82° SSE 03:09:11 10° ENE
STARLINK-36 3.9 03:02:43 24° W 03:05:03 62° N 03:09:03 10° ENE
STARLINK-1008 3.9 03:03:03 23° W 03:05:29 63° N 03:09:37 10° ENE
BREEZE-M DEB (TANK) 3.2 03:05:30 22° S 03:06:26 25° SSE 03:08:27 10° E
STARLINK-68 3.9 03:04:28 22° W 03:06:54 61° N 03:10:55 10° ENE
Cosmos 2180 Rocket 4.5 03:01:07 10° NNW 03:07:14 63° W 03:13:25 10° S
STARLINK-1024 3.6 03:05:41 30° WSW 03:07:39 80° SSE 03:11:49 10° ENE
ARIANE 5 R/B 2.9 03:03:16 10° N 03:08:16 49° WNW 03:11:22 22° SW
STARLINK-63 3.9 03:05:59 22° W 03:08:28 61° N 03:12:28 10° ENE
CZ-2C R/B 3.9 03:05:47 10° NNE 03:09:55 33° E 03:14:03 10° SSE
Spot 4 Rocket 4.1 03:04:55 10° N 03:10:01 61° WNW 03:13:36 20° SW
STARLINK-35 3.9 03:07:30 21° W 03:10:01 61° N 03:14:02 10° ENE
BREEZE-M DEB (TANK) 3.9 03:05:27 10° WNW 03:10:14 26° SW 03:13:33 10° SSE
CZ-4B R/B 1.4 03:07:00 10° SSE 03:10:30 90° E 03:14:00 10° NNW
STARLINK-51 3.9 03:09:05 20° W 03:11:41 61° N 03:15:41 10° ENE
H-2A R/B 3.0 03:11:49 25° WSW 03:12:20 26° W 03:15:50 10° NW
STARLINK-1035 3.6 03:10:27 27° WSW 03:12:37 84° SSE 03:16:47 10° ENE
STARLINK-30 3.9 03:10:40 20° W 03:13:20 60° N 03:17:20 10° ENE
STARLINK-72 3.9 03:12:17 19° W 03:15:01 60° N 03:19:02 10° ENE
STARLINK-1025 4.0 03:12:37 19° W 03:15:29 61° N 03:19:36 10° ENE
STARLINK-43 3.5 03:13:52 22° W 03:15:54 47° SSW 03:19:27 10° SE
STARLINK-50 3.9 03:13:50 18° W 03:16:39 60° N 03:20:39 10° ENE
SAR-Lupe-1 4.4 03:14:18 17° SSW 03:16:48 44° W 03:20:16 10° NNW
STARLINK-1032 3.6 03:15:15 25° WSW 03:17:36 87° SSE 03:21:47 10° ENE
NOSS 3-2 (C) 3.5 03:13:21 20° SW 03:17:40 88° SE 03:24:27 10° NE
Meteor 1-4 Rocket 3.2 03:14:28 10° S 03:18:10 57° E 03:21:52 10° NNE
STARLINK-59 3.9 03:15:31 18° W 03:18:26 60° N 03:22:26 10° ENE
SL-16 R/B 2.6 03:13:20 10° NW 03:18:37 41° WSW 03:23:52 10° S
Cosmos 389 Rocket 2.5 03:17:04 22° SSW 03:19:13 63° WNW 03:22:43 10° N
STARLINK-56 3.9 03:17:01 17° W 03:19:58 60° N 03:23:58 10° ENE
STARLINK-1017 4.0 03:17:23 17° W 03:20:28 61° N 03:24:35 10° ENE
Lacrosse 5 rocket 2.8 03:17:04 10° WNW 03:20:33 31° N 03:24:13 10° ENE
STARLINK-26 3.0 03:18:24 15° WNW 03:21:09 86° SSW 03:24:36 10° ESE
STARLINK-73 4.0 03:18:37 17° W 03:21:38 60° N 03:25:38 10° ENE
STARLINK 1040 2.7 03:20:14 20° WNW 03:21:58 69° NNE 03:24:42 10° E
STARLINK-1011 3.6 03:20:02 23° WSW 03:22:35 89° NNW 03:26:46 10° ENE
STARLINK-55 3.0 03:20:32 16° WNW 03:23:02 78° NNE 03:26:14 10° ESE
STARLINK-38 4.0 03:20:12 16° W 03:23:18 59° N 03:27:19 10° ENE
Meteor 1-13 Rocket 4.4 03:18:17 10° S 03:23:59 76° E 03:29:37 10° NNE
ADEOS 4.4 03:19:09 10° NNE 03:24:16 52° E 03:29:21 10° S
CZ-2D R/B 4.1 03:21:21 10° NNW 03:24:18 15° NW 03:27:06 10° W
Cosmos 2082 3.8 03:20:11 18° SW 03:24:34 69° WNW 03:30:20 10° NNE
deb Chang Zheng 4 3.5 03:20:15 10° NNE 03:24:35 80° WNW 03:28:51 10° SSW
STARLINK-65 4.0 03:21:49 16° W 03:24:58 59° N 03:28:58 10° ENE
Cosmos 1674 Rocket 4.1 03:22:02 10° S 03:26:21 61° E 03:30:41 10° NNE
STARLINK-53 4.0 03:23:27 15° W 03:26:43 59° N 03:30:42 10° E
STARLINK-28 2.9 03:24:21 14° WNW 03:27:00 83° NNE 03:30:13 10° ESE
STARLINK-1036 3.6 03:24:50 21° WSW 03:27:35 86° NNW 03:31:46 10° ENE
STARLINK-1014 4.0 03:24:24 15° W 03:27:41 60° N 03:31:43 10° ENE
STARLINK-1055 4.5 03:26:25 16° SSW 03:29:21 41° SE 03:33:16 10° ENE
STARLINK-1044 3.6 03:29:37 19° WSW 03:32:35 83° NNW 03:36:45 10° ENE
STARLINK-33 2.9 03:30:17 12° WNW 03:33:12 83° NNE 03:36:25 10° ESE
Okean 3 3.6 03:30:22 14° SSW 03:33:49 51° WNW 03:37:56 10° N
STARLINK-1022 4.4 03:31:13 15° SW 03:34:19 44° SSE 03:38:17 10° ENE
STARLINK-1048 4.0 03:31:43 12° W 03:35:25 60° N 03:39:33 10° E
Meteor 1-12 Rocket 4.4 03:30:54 10° NNW 03:36:44 55° W 03:42:25 10° S
STARLINK-24 4.0 03:33:23 12° W 03:37:05 59° N 03:41:04 10° E
STARLINK-1047 3.6 03:34:23 17° WSW 03:37:32 80° NNW 03:41:42 10° ENE
STARLINK-1037 3.6 03:35:01 17° WSW 03:38:12 80° NNW 03:42:22 10° ENE
STARLINK-66 2.9 03:35:12 11° WNW 03:38:19 88° N 03:41:33 10° ESE
COSMOS 2441 4.3 03:34:09 10° NNE 03:38:59 85° WNW 03:43:47 10° SSW
STARLINK-1042 4.3 03:35:59 14° SW 03:39:16 47° SSE 03:43:16 10° ENE
Cosmos 1544 4.5 03:36:49 10° NW 03:39:34 20° W 03:41:05 16° WSW
USA 267 3.3 03:33:29 10° ENE 03:40:04 88° SSE 03:46:14 12° WSW
STARLINK-58 3.3 03:37:09 10° WNW 03:40:16 62° N 03:43:26 10° E
STARLINK-1049 4.0 03:36:31 11° W 03:40:26 60° N 03:44:33 10° E
Cosmos 2237 Rocket 4.0 03:39:24 10° WNW 03:40:35 11° W 03:40:35 11° W
Cosmos 1603 3.7 03:36:03 10° NNW 03:41:42 84° WSW 03:47:20 10° SSE
Meteor 1-15 Rocket 4.3 03:37:43 10° NNW 03:43:21 87° ENE 03:49:00 10° SSE
SeaSat 1 2.5 03:38:28 10° SSE 03:43:25 89° SW 03:48:24 10° NNW
Cosmos 1300 Rocket 4.0 03:40:01 10° NNW 03:44:00 37° W 03:47:58 10° SSW
STARLINK-1056 4.2 03:40:46 13° SW 03:44:14 50° SSE 03:48:15 10° ENE
STARLINK-1051 4.1 03:41:20 10° W 03:45:27 60° N 03:49:34 10° E
ATLAS 5 CENTAUR R/B 2.4 03:41:33 10° NW 03:47:08 58° SW 03:53:33 10° SSE
STARLINK-1059 3.7 03:43:57 14° W 03:47:31 75° NNW 03:51:41 10° ENE
Cosmos 1818 4.1 03:42:52 10° NW 03:47:46 35° WSW 03:52:38 10° S
ATLAS 3B R/B 2.8 03:41:13 10° SSW 03:47:51 74° SE 03:54:30 10° NE
STARLINK-1010 4.1 03:43:40 10° WNW 03:47:52 61° N 03:52:05 10° E
STARLINK-75 2.9 03:45:37 10° WNW 03:48:50 88° SW 03:52:04 10° ESE
STARLINK-1054 4.1 03:45:32 12° SW 03:49:10 53° SSE 03:53:13 10° ENE
Cosmos 2221 Rocket 4.2 03:45:25 11° SW 03:49:26 38° WNW 03:53:34 10° N
STARLINK-1057 3.7 03:48:44 12° W 03:52:30 73° NNW 03:56:40 10° ENE
Okean 2 Rocket 4.1 03:50:08 10° NNW 03:53:55 27° W 03:57:43 10° SW
STARLINK-1062 4.0 03:50:19 11° SW 03:54:08 56° SSE 03:58:13 10° ENE
STARLINK-61 3.7 03:51:30 10° WNW 03:55:25 69° NNE 03:59:18 10° E
STARLINK-1028 4.1 03:51:18 10° WNW 03:55:25 61° N 03:59:32 10° E
Cosmos 2151 Rocket 4.2 03:51:30 10° NNW 03:55:30 35° W 03:59:30 10° SSW
Cosmos 2263 Rocket 2.9 03:50:24 10° S 03:55:56 57° ESE 04:01:31 10° NE
PSLV R/B 3.7 03:52:03 10° N 03:56:21 60° WNW 04:00:40 10° SSW
Cosmos 1689 Rocket 2.4 03:53:38 10° S 03:56:31 43° W 03:59:25 10° NNW
STARLINK-1034 3.8 03:53:31 11° W 03:57:30 71° NNW 04:01:39 10° ENE
BREEZE-M DEB (TANK) 2.4 03:54:51 10° W 03:58:24 46° SSW 04:00:36 10° SE
STARLINK-1053 4.0 03:55:07 10° SW 03:59:07 60° SSE 04:03:13 10° ENE
STARLINK-1029 3.3 03:57:08 10° WNW 04:00:16 64° NNE 04:03:23 10° E
Cosmos 1437 Rocket 3.8 03:56:22 10° S 04:00:20 51° E 04:04:18 10° NNE
STARLINK-1021 4.1 03:56:19 10° WNW 04:00:26 61° N 04:04:34 10° E
STARLINK-34 3.1 03:58:35 10° WNW 04:01:48 75° NNE 04:04:59 10° ESE
STARLINK-1068 3.8 03:58:20 10° W 04:02:28 69° NNW 04:06:37 10° ENE
STARLINK-62 3.1 03:59:32 10° WNW 04:02:44 76° NNE 04:05:55 10° ESE
STARLINK-1061 3.9 03:59:57 10° SW 04:04:04 64° SSE 04:08:10 10° ENE
CZ-2C R/B 4.2 04:01:00 10° N 04:04:13 23° WNW 04:07:23 10° WSW
Cosmos 1867 3.9 03:58:51 10° SSW 04:04:15 68° SE 04:09:42 10° NE
Cosmos 1455 Rocket 4.5 04:00:34 10° N 04:04:52 45° ENE 04:09:09 10° SSE
Cosmos 1378 Rocket 3.5 04:00:33 10° SSW 04:04:54 74° W 04:09:19 10° N
STARLINK-22 2.9 04:01:50 10° WNW 04:05:04 84° SSW 04:08:19 10° ESE
Cosmos 2297 Rocket 3.5 04:00:31 10° W 04:05:13 26° NW 04:09:58 10° NNE
STARLINK-1019 4.0 04:01:17 10° WNW 04:05:25 62° N 04:09:32 10° E
STARLINK-81 4.0 04:02:15 10° WNW 04:06:15 61° N 04:10:16 10° E
STARLINK-54 4.0 04:04:07 10° WNW 04:08:08 62° N 04:12:09 10° E
STARLINK-1023 4.1 04:04:11 10° WNW 04:08:22 63° N 04:12:33 10° E
Cosmos 1092 Rocket 4.1 04:02:39 10° SSW 04:08:58 69° WNW 04:15:17 10° N
STARLINK-1067 3.8 04:04:57 10° SW 04:09:04 67° SSE 04:13:11 10° ENE
STARLINK-77 4.0 04:05:34 10° WNW 04:09:34 62° N 04:13:34 10° E
Aureole 3 Rocket 3.2 04:04:43 10° N 04:09:35 74° ENE 04:13:09 10° SSE
STARLINK-1012 4.0 04:06:17 10° WNW 04:10:25 63° N 04:14:33 10° E
STARLINK-25 4.0 04:07:13 10° WNW 04:11:14 62° N 04:15:14 10° E
Meteor 1-31 Rocket 3.3 04:07:44 10° NNE 04:11:41 66° ESE 04:15:35 10° S
STARLINK-1060 3.9 04:08:18 10° W 04:12:26 66° N 04:16:35 10° ENE
SKYMED 2 4.4 04:08:19 10° SSE 04:12:35 57° ENE 04:16:51 10° N
STARLINK-71 3.9 04:09:06 10° WNW 04:13:07 64° N 04:17:08 10° E
USA 238 DEB 4.4 04:06:56 10° W 04:13:21 44° NNW 04:20:03 10° NE
USA 238 4.4 04:07:01 10° W 04:13:27 44° NNW 04:20:11 10° NE
STARLINK-1058 3.8 04:09:53 10° WSW 04:14:00 71° SSE 04:18:09 10° ENE
STARLINK-79 4.0 04:10:32 10° WNW 04:14:33 63° N 04:18:33 10° E
STARLINK-78 4.0 04:12:12 10° WNW 04:16:13 63° N 04:20:14 10° E
Geosat 4.0 04:11:11 10° NNE 04:16:14 77° WNW 04:21:15 10° SW
USA 234 3.7 04:10:33 10° SSE 04:16:41 41° SW 04:22:49 10° WNW
